Flag for U.S.A. Weather past 2 weeks in Stockton, California, U.S.A.

Now
80 °F

Sunny.


Feels Like: 80 °F
Forecast: 58 / 85 °F
Wind: 14 mph from West

Location: Stockton Metropolitan Airport

Current Time: Sep 2, 2015 at 12:32:56 PM

Latest Report: Sep 2, 2015 at 11:55 AM


Visibility: 10 mi

Pressure: 29.90 "Hg

Humidity: 36%

Dew point: 51 °F

Location of StocktonLocation

Historic Weather in Stockton — Graph

°F

Stockton temperature yesterday

Maximum temperature yesterday: 93 °F (at 4:55 PM)
Minimum temperature yesterday: 60 °F (at 5:55 AM)
Average temperature yesterday: 75 °F

Past Weeks' High & Low Weather Summary

 TemperatureHumidityPressure
High103 °F (Aug 27, 3:55 PM)90% (Aug 19, 5:55 AM)30.02 "Hg (Aug 19, 5:55 AM)
Low57 °F (Aug 22, 5:55 AM)14% (Aug 27, 2:55 PM)29.77 "Hg (Aug 20, 5:55 PM)
Average76 °F51%29.89 "Hg
* Reported Aug 18 10:55 AM — Sep 2 10:55 AM, Stockton, Weather by CustomWeather, © 2015

Note: Actual official high and low records may vary slightly from our data, if they occured in-between our weather recording intervals... More about our weather records

Advertising

Stockton weather history for previous 24 hours

 ConditionsComfort  
Time TempWeatherWind HumidityBarometerVisibility
10:55 AM
Wed, Sep 2
77 °FSunny.13 mph44%29.90 "Hg10 mi
9:55 AM73 °FSunny.14 mph53%29.90 "Hg10 mi
8:55 AM69 °FSunny.10 mph61%29.90 "Hg10 mi
7:55 AM65 °FSunny.15 mph70%29.90 "Hg10 mi
6:55 AM62 °FClear.12 mph78%29.88 "Hg10 mi
5:55 AM63 °FClear.10 mph73%29.87 "Hg10 mi
4:55 AM62 °FClear.12 mph75%29.87 "Hg10 mi
3:55 AM63 °FClear.9 mph73%29.87 "Hg10 mi
2:55 AM64 °FClear.12 mph70%29.87 "Hg10 mi
1:55 AM64 °FClear.12 mph70%29.87 "Hg10 mi
12:55 AM65 °FClear.12 mph68%29.87 "Hg10 mi
11:55 PM
Tue, Sep 1
66 °FClear.7 mph65%29.86 "Hg10 mi
10:55 PM67 °FClear.14 mph66%29.85 "Hg10 mi
9:55 PM70 °FClear.13 mph57%29.85 "Hg10 mi
8:55 PM75 °FClear.15 mph45%29.83 "Hg10 mi
7:55 PM80 °FSunny.17 mph41%29.81 "Hg10 mi
6:55 PM86 °FSunny.15 mph33%29.78 "Hg10 mi
5:55 PM91 °FSunny.14 mph25%29.77 "Hg10 mi
4:55 PM93 °FSunny.8 mph24%29.77 "Hg10 mi
3:55 PM92 °FPassing clouds.7 mph23%29.79 "Hg9 mi
1:55 PM89 °FSunny.7 mph28%29.82 "Hg10 mi
12:55 PM88 °FSunny.7 mph30%29.83 "Hg10 mi
Weather by CustomWeather, © 2015

See weather overviewHow to use our weather pages